SCP
0 0 0 0 0 0 -0 -0 -0 0 0 0 0 0 0 0 0 0 0 0 0 0
0 0 0 0 0 -0 -0 -0 -0 0 0 0 0 0 0 0 0 0 0 0 0 0
0 0 0 0 0 -0 -0 -0 0 0 0 -0 0 0 0 0 0 0 0 0 0 -0
0 0 0 0 -0 -0 -0 -0 -0 -0 -0 0 0 -0 -0 -0 0 0 0 0 0 0
0 0 0 0 0 0 -0 -0 -0 0 -0 0 0 -0 -0 -0 0 0 0 0 0 0
0 -0 0 0 0 0 0 -0 -0 0 -0 -0 0 -0 -0 0 0 0 0 0 0 0
0 -0 -0 0 -0 0 0 -0 0 0 0 0 0 0 0 0 0 0 0 0 0 0
0 0 -0 -0 0 -0 -0 0 0 0 0 0 0 0 0 0 0 0 0 -0 -0 -0
0 0 0 0 -0 -0 0 0 0 -0 -0 -0 0 -0 -0 -0 0 0 0 -0 -0 0
0 0 0 0 0 -0 -0 -0 -0 -0 -0 -0 -0 0 -0 -0 0 0 -0 -0 -0 0
0 0 0 0 0 0 0 0 0 -0 -0 0 -0 0 0 -0 -0 -0 -0 0 0 0
0 0 0 0 0 0 0 0 0 0 0 -0 -0 0 -0 -0 -0 -0 -0 -0 -0 0
0 0 0 0 0 0 0 0 0 0 0 -0 -0 0 -0 -0 0 0 -0 -0 0 0
0 0 0 0 0 0 0 0 0 0 0 0 0 0 0 0 0 0 0 0 0 0
Wind_Speed_500mb
26 37 40 35 34 31 41 47 47 42 45 48 55 56 57 61 54 49 40 29 34 30
30 34 39 40 38 39 39 46 47 49 50 45 49 54 53 54 56 50 41 30 32 32
34 37 41 38 41 43 44 42 43 42 40 39 41 53 58 54 52 50 45 34 33 30
38 45 39 36 41 44 42 44 46 41 38 30 32 40 51 51 47 50 50 39 34 33
39 46 48 44 42 46 45 47 45 43 43 42 39 34 54 54 50 50 49 45 44 37
45 45 50 48 49 48 49 50 49 44 45 47 47 48 55 57 53 53 48 48 51 43
49 49 48 46 50 59 56 55 53 51 50 51 46 46 64 66 59 54 58 52 46 49
54 51 50 50 51 56 56 58 56 55 52 50 48 47 55 63 60 61 53 53 51 48
59 58 56 56 57 56 56 56 61 58 56 57 56 50 56 61 63 63 59 59 59 54
62 65 64 64 61 59 60 60 60 62 61 61 64 60 63 61 63 62 59 66 67 61
60 62 65 66 65 63 66 67 66 65 62 62 61 61 58 57 62 63 65 59 62 65
67 64 65 67 64 62 60 64 70 70 65 64 63 61 62 63 64 62 61 58 56 58
72 71 73 69 65 60 60 54 57 69 73 67 66 63 62 61 68 65 65 62 65 61
75 76 75 75 72 65 61 57 54 56 65 73 74 71 70 65 68 72 68 65 67 64
Wind_Direction_500mb
165 165 168 174 173 170 171 163 170 174 182 192 199 199 196 196 182 189 196 191 196 199
166 165 175 175 176 177 173 172 174 181 188 189 198 201 195 194 194 188 192 185 197 197
167 166 174 174 172 175 171 173 175 180 186 187 198 204 199 202 199 195 192 197 195 209
174 169 173 172 171 175 174 173 182 180 185 190 184 196 197 200 202 198 198 203 204 206
179 177 176 183 181 177 178 178 179 188 188 185 194 191 196 201 205 200 201 203 209 207
187 187 185 187 189 185 182 188 187 186 191 189 199 206 207 204 199 205 204 208 212 214
194 194 194 190 188 192 193 192 192 192 196 196 204 210 205 206 202 206 207 215 216 220
201 200 198 196 192 192 195 195 197 198 200 199 207 209 208 207 204 207 212 216 222 222
201 206 205 204 202 202 203 203 206 205 207 201 205 210 211 212 215 215 220 223 221 224
205 207 209 210 210 211 211 210 211 211 212 210 212 215 214 215 217 220 224 228 222 223
212 211 210 211 214 215 216 216 217 217 216 217 213 212 216 217 220 220 225 226 223 228
217 211 208 208 211 212 212 215 218 219 217 216 216 216 219 218 223 218 219 221 223 227
221 219 215 214 213 214 215 216 217 216 216 217 219 219 220 222 218 223 224 226 228 232
225 225 225 222 219 218 217 215 213 214 215 217 218 222 225 225 222 226 230 233 230 229
Wind_Speed_850mb
26 37 40 35 34 31 41 47 47 42 45 48 55 56 57 61 54 49 40 29 34 30
30 34 39 40 38 39 39 46 47 49 50 45 49 54 53 54 56 50 41 30 32 32
34 37 41 38 41 43 44 42 43 42 40 39 41 53 58 54 52 50 45 34 33 30
38 45 39 36 41 44 42 44 46 41 38 30 32 40 51 51 47 50 50 39 34 33
39 46 48 44 42 46 45 47 45 43 43 42 39 34 54 54 50 50 49 45 44 37
45 45 50 48 49 48 49 50 49 44 45 47 47 48 55 57 53 53 48 48 51 43
49 49 48 46 50 59 56 55 53 51 50 51 46 46 64 66 59 54 58 52 46 49
54 51 50 50 51 56 56 58 56 55 52 50 48 47 55 63 60 61 53 53 51 48
59 58 56 56 57 56 56 56 61 58 56 57 56 50 56 61 63 63 59 59 59 54
62 65 64 64 61 59 60 60 60 62 61 61 64 60 63 61 63 62 59 66 67 61
60 62 65 66 65 63 66 67 66 65 62 62 61 61 58 57 62 63 65 59 62 65
67 64 65 67 64 62 60 64 70 70 65 64 63 61 62 63 64 62 61 58 56 58
72 71 73 69 65 60 60 54 57 69 73 67 66 63 62 61 68 65 65 62 65 61
75 76 75 75 72 65 61 57 54 56 65 73 74 71 70 65 68 72 68 65 67 64
Wind_Direction_850mb
165 165 168 174 173 170 171 163 170 174 182 192 199 199 196 196 182 189 196 191 196 199
166 165 175 175 176 177 173 172 174 181 188 189 198 201 195 194 194 188 192 185 197 197
167 166 174 174 172 175 171 173 175 180 186 187 198 204 199 202 199 195 192 197 195 209
174 169 173 172 171 175 174 173 182 180 185 190 184 196 197 200 202 198 198 203 204 206
179 177 176 183 181 177 178 178 179 188 188 185 194 191 196 201 205 200 201 203 209 207
187 187 185 187 189 185 182 188 187 186 191 189 199 206 207 204 199 205 204 208 212 214
194 194 194 190 188 192 193 192 192 192 196 196 204 210 205 206 202 206 207 215 216 220
201 200 198 196 192 192 195 195 197 198 200 199 207 209 208 207 204 207 212 216 222 222
201 206 205 204 202 202 203 203 206 205 207 201 205 210 211 212 215 215 220 223 221 224
205 207 209 210 210 211 211 210 211 211 212 210 212 215 214 215 217 220 224 228 222 223
212 211 210 211 214 215 216 216 217 217 216 217 213 212 216 217 220 220 225 226 223 228
217 211 208 208 211 212 212 215 218 219 217 216 216 216 219 218 223 218 219 221 223 227
221 219 215 214 213 214 215 216 217 216 216 217 219 219 220 222 218 223 224 226 228 232
225 225 225 222 219 218 217 215 213 214 215 217 218 222 225 225 222 226 230 233 230 229